Regional Weather Roundup
Issued by NWS

Home | Current Version | Previous Version | Graphics & Text | Print | Product List | Glossary On
Versions: 1 2 3 4 5 6 7 8 9 10 11 12 13 14 15 16 17 18 19 20 21 22 23 24 25 26 27 28 29 30 31 32 33 34 35 36 37 38 39 40 41 42 43 44 45 46 47 48 49 50
253
ASUS45 KTFX 170510
RWRMT
MONTANA REGIONAL WEATHER ROUNDUP
NATIONAL WEATHER SERVICE GREAT FALLS MT
1100 PM MDT MON OCT 16 2017

NOTE: "FAIR" INDICATES FEW OR NO CLOUDS BELOW 12000 FEET WITH NO
SIGNIFICANT WEATHER AND/OR OBSTRUCTIONS TO VISIBILITY.

MTZ001>007-043-170600-
WEST OF THE DIVIDE

CITY           SKY/WX    TMP DP  RH WIND       PRES   REMARKS
KALISPELL      CLEAR     48  33  56 S7        30.07F
MISSOULA       CLEAR     41  30  65 NE3       30.15S
BUTTE          CLEAR     37  24  59 SE8       30.24S WCI  31
MULLAN PASS    CLEAR     44  21  40 VRB3      30.18F
ANACONDA         N/A     43  23  45 W5        30.21R
DEER LODGE       N/A     41  25  52 CALM      30.21R
EUREKA           N/A     55  28  35 MISG      30.06S
HAMILTON         N/A     54  27  35 SE13      30.17R
LIBBY            N/A     43  34  70 E3        30.07S
PLAINS           N/A     40  27  60 MISG      30.11F
$$

MTZ008-052>055-170600-
SOUTHWEST MONTANA

CITY           SKY/WX    TMP DP  RH WIND       PRES   REMARKS
BOZEMAN        CLEAR     40  29  64 S8        30.19S
DILLON         CLOUDY    42  21  43 S12       30.24R
W YELLOWSTONE  CLOUDY    34  16  47 CALM      30.37R
ENNIS          CLOUDY    45  18  33 S14       30.31S
$$

MTZ009-010-012-014-046-048-049-054-170600-
EAST SLOPES AND CENTRAL MONTANA

CITY           SKY/WX    TMP DP  RH WIND       PRES   REMARKS
CUT BANK       PTCLDY    55  22  27 SW24G35   29.93F
GREAT FALLS    CLEAR     54  22  28 SW18      30.02F
MALMSTROM AFB  CLEAR     58  23  26 SW24G32   30.01F
HELENA         CLEAR     50  26  39 E3        30.12F
CHOTEAU          N/A     57  21  24 SW20G26   30.02F
$$

MTZ011-013-016-021-045-047-050-051-170600-
NORTH CENTRAL MONTANA

CITY           SKY/WX    TMP DP  RH WIND       PRES   REMARKS
HAVRE          CLEAR     57  25  29 SW24      29.88F
LEWISTOWN      CLEAR     52  23  32 SW6       30.04F
N BAR RANCH      N/A     55  18  22 W10       30.06F
CHINOOK          N/A     64  21  19 SW23G32   29.84F
$$

MTZ017>020-022>027-061-062-170600-
NORTHEAST MONTANA

CITY           SKY/WX    TMP DP  RH WIND       PRES   REMARKS
GLASGOW        CLEAR     55  27  34 SW7       29.88F
JORDAN           N/A     43  30  60 W3        29.95F
SIDNEY         CLEAR     39  32  76 S8        29.94F
WOLF POINT     CLEAR     42  30  62 CALM      29.90F
MALTA          CLEAR     52  27  37 W10       29.85F
PLENTYWOOD       N/A     50  30  46 CALM      29.88F
SCOBEY           N/A     49  26  41 S1        29.86
$$

MTZ028>42-056>058-170600-
SOUTHCENTRAL AND SOUTHEAST MONTANA

CITY           SKY/WX    TMP DP  RH WIND       PRES   REMARKS
BAKER          CLEAR     39  31  72 NE3       30.03S
BILLINGS       CLEAR     59  26  28 W16       30.07F
LIVINGSTON     CLEAR     57  18  21 SW29G39   30.16S
MILES CITY     CLEAR     47  30  51 S5        30.01R
BIG TIMBER     CLEAR     57  18  21 W32G39    30.12F
EKALAKA          N/A     57  23  27 W1        30.03
FORSYTH          N/A     59  21  23 SW5       30.01F
LAUREL           N/A     54  25  32 W10       30.10S
ROUNDUP          N/A     52  19  27 S12       29.96F
$$

REGIONAL REPORTS...DAKOTAS

CITY           SKY/WX    TMP DP  RH WIND       PRES   REMARKS
WILLISTON      CLEAR     44  32  62 SW6       29.92F
MINOT          CLOUDY    50  33  52 SW12      29.90F
DICKINSON      CLEAR     42  29  59 SW6       29.98S
BEACH            N/A     39  30  70 S5        30.02F
CROSBY           N/A     45  32  61 S13       29.87F
TIOGA            N/A     43  30  61 SW10      29.92F
WATFORD CITY     N/A     37  30  75 SW7       29.93F
BISMARCK       CLOUDY    43  34  70 CALM      29.99R
GRAND FORKS    CLOUDY    47  36  65 W7        29.89S
FARGO          CLOUDY    47  38  71 SW3       29.92R
BUFFALO SD       N/A     47  27  45 W7        29.99S
RAPID CITY     CLEAR     43  29  57 W6        30.10F
$$

REGIONAL REPORTS...WYOMING/IDAHO/WASHINGTON

CITY           SKY/WX    TMP DP  RH WIND       PRES   REMARKS
GILLETTE       CLEAR     35  27  72 S7        30.14S WCI  29
SHERIDAN       CLEAR     40  25  55 CALM      30.11F
BUFFALO WY     CLEAR     46  16  30 W6        30.17F
CODY           CLEAR     57  17  21 SW20G26   30.22S
YELLOWSTONE LA   N/A     26  20  77 CALM      30.41R
IDAHO FALLS    CLOUDY    32  28  85 NW5       30.32S
SALMON         CLEAR     35  28  75 CALM      30.27R
BOISE          CLEAR     47  31  53 SE3       30.26R
SPOKANE        PTCLDY    49  33  54 S9        30.10R
$$

REGIONAL REPORTS...ALBERTA

CITY           SKY/WX    TMP DP  RH WIND       PRES   REMARKS
EDMONTON       CLEAR     41  32  70 SW6       29.58S
CALGARY        MOCLDY    59  30  33 NW3       29.70R
LETHBRIDGE     CLEAR     54  28  37 SW20      29.81F
MEDICINE HAT   CLEAR     59  27  29 SW25G33   29.72F
$$

REGIONAL REPORTS...SASKATCHEWAN

CITY           SKY/WX    TMP DP  RH WIND       PRES   REMARKS
SWIFT CURRENT  CLEAR     54  28  37 SW20      29.72F
REGINA         CLEAR     43  28  56 S9        29.76F
SASKATOON      MOCLDY    50  32  50 S8        29.66F
$$




USA.gov is the U.S. government's official web portal to all federal, state and local government web resources and services.